Location: Hopville
(44.8032°N, 123.1329°W)
Time: 04:26:46
(UTC+00:00)

Cosmos 2208 Rocket - Pass Details

Date: 24 January 2021
Orbit: 755 x 805 km, 74.0° (Epoch: 26 February)

Event Time Altitude Azimuth Distance (km) Brightness Sun altitude
Rises 13:38:14 0° 201° (SSW) 3,304 7.1 -21.4°
Reaches altitude 10° 13:40:38 10° 202° (SSW) 2,377 6.4 -21.0°
Maximum altitude 13:46:05 85° 291° (WNW) 811 4.0 -20.0°
Drops below altitude 10° 13:51:31 10° 20° (NNE) 2,377 6.7 -19.1°
Sets 13:53:55 0° 21° (NNE) 3,304 7.4 -18.7°
